Location: Bruy�res
(49.1576°N, 2.3258°E)
Time: 19:27:15
(UTC+00:00)

Daily predictions for brighter satellites

Satellite Brightness Start Highest point End
(mag) Time Altitude Azimuth Time Altitude Azimuth Time Altitude Azimuth
IRS-1A Rocket 4.4 19:46:13 10° SSE 19:52:00 88° ENE 19:57:55 10° NNW
Intercosmos 24 4.3 19:51:17 10° SSE 19:54:43 35° E 19:58:01 10° NNE
Cosmos 1242 Rocket 3.6 19:54:24 10° SSE 19:57:27 26° E 20:00:29 10° NE
Cosmos 1805 Rocket 3.5 19:54:35 10° N 19:58:56 72° E 20:03:17 10° SSE
Cosmos 1633 Rocket 3.9 20:02:30 10° N 20:06:34 35° ENE 20:10:36 10° SE
Cosmos 1386 Rocket 4.4 20:00:42 10° N 20:06:45 76° E 20:12:49 10° SSE
ARIANE 5 R/B 3.8 20:06:25 10° ESE 20:10:02 27° ENE 20:13:40 10° N
Terra 3.7 20:07:39 10° E 20:10:37 17° ENE 20:13:36 10° NNE
USA 290 2.2 20:08:20 10° NNW 20:11:37 78° ENE 20:14:49 10° SSE
Intercosmos 25 Rocket 4.4 20:06:57 10° NNW 20:13:53 72° W 20:18:06 10° S
ERS-1 Rocket 4.3 20:10:54 10° ESE 20:14:59 26° ENE 20:19:05 10° N
IGS 5A 3.5 20:11:45 10° SSE 20:15:52 68° ENE 20:19:59 10° N
Cosmos 1745 Rocket 4.0 20:10:04 10° N 20:16:20 90° E 20:22:28 10° S
Resurs 1-3 4.1 20:13:46 10° S 20:18:06 61° WSW 20:22:27 10° NNW
Cosmos 1709 Rocket 4.1 20:12:57 10° N 20:19:00 58° ENE 20:25:00 10° SSE
Cosmos 1437 4.3 20:17:58 13° ESE 20:19:09 16° E 20:20:58 10° NE
Cosmos 1933 3.4 20:15:50 10° S 20:19:49 61° E 20:23:49 10° NNE
Cosmos 1503 Rocket 4.1 20:15:39 10° S 20:20:40 53° ESE 20:25:44 10° NNE
X-37B 1.4 20:18:59 10° WSW 20:21:57 35° S 20:24:16 14° SE
Cosmos 1437 Rocket 3.1 20:18:45 10° SSW 20:22:36 70° WNW 20:26:35 10° N
USA 305 3.7 20:20:29 10° WNW 20:24:39 49° NNE 20:28:48 10° E
CARTOSAT-1 4.5 20:23:35 13° SE 20:27:00 34° ENE 20:30:55 10° N
Cosmos 2082 Rocket 3.7 20:22:39 10° NNW 20:27:18 26° NE 20:31:57 10° E
Cosmos 1500 4.1 20:24:09 10° N 20:27:34 32° ENE 20:30:08 15° SE
COSMOS 2406 4.0 20:22:30 10° NNW 20:27:53 41° NE 20:32:38 13° ESE
Meteor 1-20 Rocket 4.3 20:25:14 10° NNW 20:30:54 82° W 20:36:25 10° S
Ariane Rocket 4.0 20:27:50 10° S 20:32:40 45° W 20:37:32 10° NNW
Cosmos 1666 Rocket 3.5 20:28:47 10° N 20:33:13 76° E 20:37:20 11° SSE
Meteor 2-17 Rocket 4.5 20:29:21 10° N 20:35:34 81° E 20:41:43 10° SSE
S3M 4.2 20:31:39 10° SSW 20:38:02 79° W 20:44:25 10° N
Cosmos 2315 Rocket 4.1 20:33:14 10° S 20:39:28 62° E 20:45:47 10° NNE
Cosmos 1782 2.9 20:36:31 10° S 20:40:26 56° E 20:44:22 10° NNE
Landsat 7 3.9 20:35:52 10° S 20:40:38 80° WSW 20:45:26 10° NNW
USA 245 2.1 20:42:52 27° SE 20:43:51 53° ENE 20:46:03 10° N
USA 306 3.5 20:39:42 10° WNW 20:43:55 55° NNE 20:47:58 11° E
Cosmos 1271 Rocket 4.4 20:46:43 16° ESE 20:47:52 18° E 20:50:37 10° NE
SPOT 1/Viking Rocket 3.6 20:45:30 13° SSE 20:50:11 88° ENE 20:55:25 10° NNW
Cosmos 1602 3.9 20:46:52 10° NNW 20:50:43 73° W 20:54:03 13° S
Cosmos 1354 Rocket 3.9 20:47:19 10° SSW 20:52:33 83° ESE 20:57:50 10° NNE
Sich 1 4.1 20:48:34 10° NNW 20:52:39 42° W 20:56:45 10° SSW
SJ 16-02 2.7 20:52:10 19° SE 20:53:33 22° E 20:56:57 10° NE
Cosmos 2278 Rocket 2.9 20:50:06 14° SSE 20:54:13 33° ESE 20:59:13 10° NE
NOSS 3-4 (A) 4.3 20:50:31 10° NW 20:57:10 54° NE 21:03:33 14° ESE
NOSS 3-4 (C) 4.3 20:50:38 10° NW 20:57:16 54° NE 21:03:39 14° ESE
Resurs 01 Rocket 2.7 20:53:48 10° S 20:58:00 41° W 21:02:14 10° NNW
CRYOSAT 2 4.4 20:56:19 12° S 21:00:52 83° W 21:05:47 10° N
Cosmos 2228 Rocket 4.5 21:01:58 19° ESE 21:03:21 22° E 21:06:47 10° NE
Cosmos 1844 Rocket 3.7 20:58:26 10° SW 21:03:48 48° NW 21:09:14 10° NNE
SPOT 3 Rocket 4.4 20:59:18 10° S 21:04:13 45° W 21:09:12 10° NNW
NOSS 3-3 (A) 3.9 21:01:48 10° SSW 21:07:30 66° SE 21:14:03 10° NE
NOSS 3-3 (C) 3.9 21:01:55 10° SSW 21:07:37 65° SE 21:14:09 10° NE
USA 307 3.2 21:05:28 10° WNW 21:09:44 65° NNE 21:12:48 18° E
ATLAS 2AS CENTAUR R/B 3.7 21:03:24 10° NW 21:10:36 45° NNE 21:16:52 12° ESE
CREW DRAGON DEMO-1 DEB 2.6 21:11:46 10° WNW 21:14:25 70° NNE 21:15:13 39° E
Cosmos 1151 Rocket 3.4 21:10:27 10° SSW 21:14:46 64° WNW 21:19:09 10° N
BREEZE-M R/B 1.5 21:14:58 10° WSW 21:17:24 79° SSE 21:18:26 31° E
Cosmos 1536 4.2 21:14:32 10° NNE 21:18:01 27° ENE 21:19:22 22° ESE
CZ-4C R/B 3.0 21:10:53 10° NW 21:18:02 85° SW 21:23:48 22° SE
Cosmos 1812 2.6 21:16:50 25° S 21:18:56 70° E 21:22:48 10° NNE
USA 215 4.2 21:13:38 10° ENE 21:19:49 47° N 21:26:01 10° WNW
Meteor 1-10 Rocket 4.5 21:17:13 23° SSE 21:20:30 49° E 21:25:56 10° NNE
Iridium 4 Rocket 3.9 21:18:17 22° SSE 21:22:04 64° E 21:27:56 10° N
USA 308 3.0 21:18:59 10° WNW 21:23:18 74° NNE 21:25:49 24° ESE
JB-3 4.2 21:19:37 10° NNE 21:23:34 85° ESE 21:25:57 22° SSW
ATLAS 5 CENTAUR R/B 3.3 21:19:08 10° NW 21:24:22 39° WSW 21:28:41 18° S
Cosmos 1538 Rocket 4.0 21:20:27 10° NNW 21:25:52 85° ENE 21:28:51 27° SSE
Meteor 1-5 Rocket 4.1 21:22:02 10° NNW 21:27:29 85° W 21:30:46 24° S
Cosmos 2084 3.2 21:25:16 10° SW 21:29:24 80° SE 21:33:41 10° NE
Cosmos 158 Rocket 4.1 21:25:28 10° NNW 21:30:18 59° ENE 21:32:38 29° SE
Cosmos 1666 2.5 21:29:50 10° N 21:33:36 89° WSW 21:34:56 38° S
Cosmos 1833 Rocket 2.8 21:30:43 10° NNW 21:36:22 72° WSW 21:39:27 28° SSE
Cosmos 1515 Rocket 3.6 21:34:00 21° SSW 21:36:54 81° W 21:41:19 10° N
Cosmos 1869 Rocket 3.9 21:35:37 10° N 21:39:51 51° ENE 21:41:16 36° SE
Spot 2 Rocket 4.3 21:36:57 18° SSW 21:40:29 46° W 21:45:21 10° NNW
Cosmos 1743 4.1 21:38:43 10° NNE 21:41:58 25° ENE 21:42:43 23° E
Cosmos 1680 Rocket 4.2 21:38:07 10° NNW 21:43:16 45° ENE 21:45:47 27° ESE
SPOT 5 3.3 21:41:10 25° S 21:44:06 65° W 21:49:20 10° NNW
ARIANE 5 R/B 3.7 21:43:44 19° SSW 21:46:21 37° W 21:50:25 10° NNW
Terra 1.8 21:45:33 32° S 21:47:47 79° WSW 21:52:35 10° NNW
ERS-1 Rocket 3.5 21:50:41 24° SSW 21:53:29 52° W 21:58:24 10° NNW
deb Kosmos-1763 4.4 21:51:12 10° NNW 21:54:39 51° WSW 21:55:21 43° SSW
Cosmos 2154 Rocket 4.0 21:50:37 10° N 21:57:00 81° E 22:00:11 32° SSE
X-37B 3.2 21:55:58 10° WSW 21:56:32 12° WSW 21:56:32 12° WSW
Cosmos 1707 Rocket 4.3 21:59:37 33° ESE 22:00:09 34° E 22:04:08 10° NNE
ALOS 2 4.4 21:59:30 17° E 22:01:04 20° ENE 22:04:17 10° NNE
USA 305 2.9 22:00:31 10° WNW 22:04:45 66° SSW 22:05:35 52° SSE
Cosmos 2184 Rocket 4.2 21:58:35 10° NNW 22:04:46 65° W 22:08:19 26° SSW
Cosmos 2074 Rocket 4.5 22:05:22 10° NNW 22:11:31 56° W 22:15:13 24° SSW
Cosmos 2082 Rocket 2.2 22:06:21 10° NNW 22:11:58 72° WSW 22:14:07 38° S
COSMOS 2406 4.1 22:06:56 10° NW 22:12:11 39° WSW 22:14:42 26° SSW
Meteor 1-27 Rocket 3.7 22:12:02 33° S 22:14:51 84° E 22:20:47 10° NNE
Cosmos 44 3.9 22:10:34 10° NW 22:15:58 59° NE 22:18:21 32° ESE
Cosmos 923 Rocket 4.0 22:13:36 10° NNW 22:18:53 78° WSW 22:20:38 43° S
Nadezhda 1 Rocket 4.0 22:16:05 29° SSW 22:19:36 84° W 22:25:53 10° N
Cosmos 1898 Rocket 3.8 22:20:54 42° SE 22:21:59 49° ESE 22:27:07 10° NNE
Cosmos 1271 Rocket 3.7 22:21:48 27° SW 22:23:30 44° WNW 22:27:22 10° N
USA 306 3.1 22:19:45 10° WNW 22:23:54 51° SW 22:24:02 51° SSW
Cosmos 1544 3.0 22:25:25 10° NNW 22:29:01 74° W 22:29:08 73° WSW
Gbstr 26 Del rocket 4.2 22:21:30 10° WNW 22:29:03 79° NNE 22:34:28 14° E
Cosmos 1733 Rocket 3.1 22:27:24 10° N 22:31:42 59° ENE 22:32:19 53° ESE
SJ 16-02 2.3 22:29:06 20° SW 22:31:49 46° WNW 22:36:08 10° NNE
Cosmos 2181 Rocket 4.2 22:34:45 39° SE 22:36:40 53° E 22:42:36 10° NNE
Cosmos 1238 Rocket 3.9 22:31:37 10° N 22:38:01 72° E 22:39:54 44° SSE
Cosmos 2278 Rocket 3.1 22:32:39 10° SW 22:38:08 48° NW 22:43:37 10° NNE
Cosmos 1515 3.9 22:38:29 57° E 22:38:29 57° E 22:42:01 10° NNE
Okean 1 3.5 22:40:56 54° E 22:40:56 54° E 22:44:47 10° NNE
Cosmos 2228 Rocket 4.1 22:39:25 27° SW 22:41:17 42° WNW 22:45:33 10° N
Cosmos 990 Rocket 3.9 22:40:06 45° SSW 22:41:46 85° ESE 22:47:04 10° NNE
Cosmos 1340 Rocket 3.0 22:38:59 10° NNW 22:43:02 61° W 22:43:27 57° SW
Cosmos 2366 rocket 4.1 22:41:18 10° N 22:47:27 67° ENE 22:49:36 41° SE
NOSS 3-4 (A) 4.2 22:41:29 10° NW 22:48:12 50° WSW 22:50:58 35° S
NOSS 3-4 (C) 4.2 22:41:35 10° NW 22:48:18 50° WSW 22:51:05 35° S
Cosmos 2369 Rocket 3.3 22:48:04 27° ESE 22:48:19 28° ESE 22:53:01 10° NE
Cosmos 2341 Rocket 4.0 22:42:55 10° N 22:49:21 81° W 22:51:45 41° S
USA 307 3.8 22:45:38 10° WNW 22:48:53 34° WSW 22:48:53 34° WSW
Cosmos 1943 Rocket 2.3 22:52:38 47° SE 22:53:36 53° ESE 22:59:04 10° NE
Cosmos 1536 4.2 22:50:52 10° NNW 22:54:25 30° W 22:55:05 28° WSW
Meteor 2-9 Rocket 4.2 22:49:03 10° N 22:54:54 78° ENE 22:56:34 48° SSE
SeaSat 1 4.1 22:52:01 10° ENE 22:55:08 20° E 22:55:08 20° E
Cosmos 1461 4.4 22:58:11 28° E 22:58:11 28° E 23:01:17 10° NE
Cosmos 2112 Rocket 4.3 22:52:20 10° NNW 22:57:36 58° WSW 22:58:49 46° SSW
ATLAS 2AS CENTAUR R/B 2.8 22:54:40 10° NW 23:01:57 64° WSW 23:04:17 42° S
USA 215 3.4 22:57:12 17° ESE 23:02:26 75° NNE 23:08:58 10° NW
USA 308 4.3 22:59:15 10° WNW 23:01:54 27° WSW 23:01:54 27° WSW
CZ-4C R/B 4.3 23:00:16 10° WNW 23:06:07 25° WSW 23:08:59 21° SW
RESURS DK-1 4.0 23:02:34 10° NNW 23:06:14 28° NE 23:07:43 23° E
Cosmos 2218 Rocket 3.9 23:00:41 10° N 23:06:59 89° W 23:09:04 46° S
Cosmos 1975 2.7 23:04:19 10° N 23:08:17 76° ENE 23:08:17 76° ENE
SL-24 R/B - RUBIN 2 3.9 23:03:15 10° NW 23:08:41 61° WSW 23:09:20 56° SSW
Cosmos 489 Rocket 4.4 23:03:51 10° NNW 23:10:07 90° WNW 23:12:08 46° SSE
Meteor 2-4 Rocket 4.1 23:09:23 44° SE 23:10:38 51° E 23:16:06 10° NNE
Cosmos 1862 Rocket 3.4 23:13:56 71° SW 23:14:18 78° W 23:18:40 10° N
Cosmos 1703 Rocket 4.3 23:14:30 39° E 23:14:33 39° E 23:18:39 10° NNE
Cosmos 1782 Rocket 4.5 23:11:47 10° N 23:15:59 38° ENE 23:16:38 36° E
Cosmos 1743 4.1 23:14:21 10° NNW 23:17:43 28° W 23:17:47 28° W
Cosmos 1900 4.3 23:18:46 56° SSW 23:19:52 88° ESE 23:24:57 10° NE
Cosmos 2084 Rocket 3.4 23:16:35 10° NW 23:20:45 71° WSW 23:20:45 71° WSW
ERBS 3.3 23:18:23 10° NW 23:20:56 45° NNW 23:20:56 45° NNW
Terra 4.3 23:25:13 10° W 23:26:19 11° W 23:27:26 10° WNW
Cosmos 1937 Rocket 3.6 23:26:02 46° SW 23:27:30 69° WNW 23:32:41 10° NNE
Meteor 1-18 Rocket 4.2 23:27:32 49° SSW 23:29:08 79° WNW 23:34:46 10° N
Nadezhda 3 Rocket 4.4 23:28:06 39° SE 23:29:53 50° E 23:35:52 10° NNE
ATLAS CENTAUR R/B 3.7 23:34:53 12° E 23:34:53 12° E 23:35:20 10° ENE
Cosmos 2297 4.0 23:32:11 34° SW 23:34:39 63° WNW 23:40:20 10° NNE
Thor Agena Rocket 3.7 23:30:37 10° NNE 23:35:48 59° ESE 23:36:39 52° SE
Cosmos 1818 3.6 23:30:51 10° NW 23:36:15 57° WSW 23:36:52 54° SSW
ALOS 2 2.9 23:36:53 53° WSW 23:37:03 53° W 23:41:22 10° NNW
Cosmos 1607 4.5 23:36:39 39° SE 23:37:37 42° ESE 23:43:40 10° NE
Cosmos 1048 Rocket 4.2 23:32:25 10° NNW 23:37:46 68° ENE 23:39:11 47° SE
DNEPR-1 R/B 4.0 23:39:47 44° SW 23:41:38 83° NW 23:46:33 10° NE
Cosmos 2298 Rocket 4.4 23:41:55 45° SE 23:42:30 47° ESE 23:47:34 10° NNE
Okean 1-7 2.9 23:42:48 72° E 23:42:49 72° E 23:47:06 10° NNE
PSLV R/B 4.3 23:40:55 10° NNE 23:45:04 39° E 23:45:08 39° E
SL-08 R/B 4.4 23:39:26 10° N 23:45:40 80° W 23:47:31 48° S
Resurs 1-4 Rocket 4.5 23:49:49 10° ENE 23:51:11 11° E 23:52:34 10° E
Cosmos 2082 Rocket 4.3 23:53:01 10° WNW 23:55:01 12° W 23:55:58 11° WSW
Lacrosse 5 4.2 23:58:45 11° ESE 23:58:45 11° ESE 23:59:08 10° ESE
